Location: Arrien
(42.8963°N, 1.0429°E)
Time: 08:55:41
(UTC+00:00)

ISS - Pass Details

Date: 22 February 2026
Orbit: 416 x 426 km, 51.6° (Epoch: 9 March)

Event Time Altitude Azimuth Distance (km) Brightness Sun altitude
Exits shadow 04:01:18 11° 42° (NE) 1,431 -0.4 -30.2°
Drops below altitude 10° 04:01:29 10° 44° (NE) 1,496 -0.3 -30.2°
Sets 04:03:44 0° 55° (NE) 2,360 1.1 -29.8°
